Starlink 31991

operational
NORAD ID: 59963 Int'l Des: 2024-107 Owner: SPXS Country: US Constellation: starlink
LEOCIRCULAR

Starlink 31991について

説明を読み込み中...

リアルタイム位置

3D地球を読み込み中...

次回通過

高度履歴

Altitude vs Time

uPlot chart will show altitude changes over time

軌道要素

1 59963U 24107U 25353.65911167 .00000438 00000-0 26934-4 0 9993
2 59963 53.1612 77.2470 0001168 98.1843 261.9290 15.30184841 87546
Epoch: Dec 19, 2025 • Age: 22 hours

現在のステータス

高度 480.4 km
速度 7.63 km/s
衛星直下点 50.53°N, 114.64°W
打ち上げ日 Jun 5, 2024
運用期間 1.5 years
タイプ internet

技術仕様

分類 Payload
質量 730.00 kg
乾燥質量 700.00 kg
総質量 730.00 kg
長さ 0.30 m
直径 4.10 m
スパン 29.00 m
形状 Box + pan
製造者 SPXS
バスタイプ Starlink V2M
フェーズステータス In Orbit
所有者/国 SPXS/US

大規模コンステレーション

Loading constellations...